K0FJ-1 Weather Reports


time (UTC)temp
C
wind
direction
speed
KPH
gust
KPH
rain 1hr
cm
rain 24hr
cm
rain mn
cm
humidity
%
barometer
mb
20260507145003 13 249 9.7 24.1 0.00 0.05 0.00 57 1014.4
20260507144503 12 239 8.0 22.5 0.00 0.05 0.00 61 1014.4
20260507144005 12 235 8.0 22.5 0.00 0.05 0.00 63 1014.4
20260507143503 12 241 8.0 19.3 0.00 0.05 0.00 66 1014.4
20260507143003 11 251 6.4 19.3 0.00 0.05 0.00 66 1014.4
20260507142503 11 252 6.4 16.1 0.00 0.05 0.00 68 1014.4
20260507142003 10 247 6.4 20.9 0.00 0.05 0.00 69 1014.4
20260507141503 10 244 8.0 20.9 0.00 0.05 0.00 69 1014.5
20260507141003 10 249 8.0 22.5 0.00 0.05 0.00 70 1014.5
20260507140503 9 242 8.0 22.5 0.00 0.05 0.00 72 1014.6
20260507140006 8 233 8.0 20.9 0.00 0.05 0.00 73 1014.6
20260507135503 8 243 8.0 20.9 0.00 0.08 0.00 75 1014.6
20260507135003 8 247 6.4 17.7 0.00 0.08 0.00 76 1014.6
20260507134503 7 248 6.4 19.3 0.00 0.08 0.00 78 1014.6
20260507134003 7 246 8.0 19.3 0.00 0.08 0.00 78 1014.6
20260507133503 7 246 8.0 16.1 0.00 0.10 0.00 79 1014.6
20260507133003 6 251 6.4 17.7 0.00 0.10 0.00 79 1014.6
20260507132503 6 250 6.4 20.9 0.00 0.10 0.00 80 1014.6
20260507132003 6 247 6.4 20.9 0.00 0.10 0.00 80 1014.6
20260507131503 6 243 6.4 19.3 0.00 0.10 0.00 81 1014.5
20260507131003 5 243 6.4 19.3 0.00 0.13 0.00 81 1014.6
20260507130503 5 238 6.4 16.1 0.00 0.13 0.00 82 1014.6
20260507130003 5 235 6.4 14.5 0.00 0.13 0.00 82 1014.6
20260507125503 5 242 6.4 17.7 0.00 0.13 0.00 82 1014.5
20260507125003 5 235 6.4 17.7 0.00 0.13 0.00 83 1014.5
20260507124505 4 230 6.4 17.7 0.00 0.13 0.00 84 1014.3
20260507124003 4 228 6.4 17.7 0.00 0.15 0.00 85 1014.3
20260507123503 3 227 6.4 16.1 0.00 0.15 0.00 85 1014.4
20260507123003 3 225 6.4 16.1 0.00 0.15 0.00 85 1014.5
20260507122503 3 224 6.4 17.7 0.00 0.18 0.00 85 1014.4
20260507122004 3 224 6.4 17.7 0.00 0.18 0.00 85 1014.5
20260507121503 3 228 4.8 14.5 0.00 0.18 0.00 85 1014.6
20260507121003 3 235 4.8 14.5 0.00 0.18 0.00 86 1014.7
20260507120503 3 232 4.8 14.5 0.00 0.20 0.00 86 1014.7
20260507120004 3 225 6.4 14.5 0.00 0.20 0.00 86 1014.6
20260507115503 3 222 6.4 16.1 0.00 0.20 0.00 86 1014.6
20260507115003 3 223 8.0 16.1 0.00 0.23 0.00 86 1014.7
20260507114503 3 221 8.0 14.5 0.00 0.23 0.00 86 1014.8
20260507114004 3 221 8.0 14.5 0.00 0.23 0.00 86 1014.8
20260507113503 3 217 6.4 14.5 0.00 0.25 0.00 86 1014.9
20260507113004 3 214 6.4 12.9 0.00 0.25 0.00 86 1015.0
20260507112503 3 216 6.4 12.9 0.00 0.25 0.00 86 1014.9
20260507112003 3 220 6.4 17.7 0.00 0.28 0.00 86 1014.9
20260507111504 3 221 6.4 17.7 0.00 0.28 0.00 87 1014.9
20260507111003 3 222 4.8 17.7 0.00 0.28 0.00 87 1014.9
20260507110503 3 227 4.8 17.7 0.00 0.30 0.00 87 1015.0
20260507110003 3 228 4.8 14.5 0.00 0.30 0.00 87 1015.0
20260507105503 3 235 4.8 11.3 0.00 0.30 0.00 88 1015.1
20260507105003 3 233 4.8 17.7 0.00 0.33 0.00 88 1015.2
20260507104504 3 228 6.4 17.7 0.00 0.36 0.00 88 1015.4
20260507104003 2 229 6.4 16.1 0.00 0.36 0.00 88 1015.4
20260507103503 2 227 6.4 14.5 0.00 0.38 0.00 88 1015.5
20260507103003 2 226 4.8 14.5 0.00 0.38 0.00 88 1015.4
20260507102503 2 229 4.8 11.3 0.00 0.38 0.00 88 1015.4
20260507102003 2 227 4.8 16.1 0.00 0.41 0.00 88 1015.6
20260507101506 2 225 6.4 16.1 0.00 0.41 0.00 88 1015.7
20260507101005 2 226 6.4 17.7 0.00 0.41 0.00 88 1015.8
20260507100503 2 227 6.4 17.7 0.00 0.41 0.00 87 1015.8
20260507100004 3 227 6.4 17.7 0.00 0.41 0.00 87 1015.8
20260507095503 3 226 8.0 19.3 0.00 0.41 0.00 87 1015.8
20260507095003 3 223 8.0 19.3 0.00 0.43 0.00 87 1015.8
20260507094503 3 219 6.4 16.1 0.00 0.43 0.00 87 1015.9
20260507094003 3 223 6.4 16.1 0.00 0.43 0.00 87 1015.9
20260507093503 3 231 6.4 14.5 0.00 0.43 0.00 86 1015.9
20260507093003 3 227 8.0 17.7 0.00 0.46 0.00 87 1016.0
20260507092503 3 223 8.0 19.3 0.00 0.46 0.00 87 1016.1
20260507092003 3 222 8.0 19.3 0.00 0.46 0.00 88 1016.2
20260507091503 3 220 8.0 16.1 0.00 0.46 0.00 88 1016.3
20260507091003 3 222 8.0 16.1 0.00 0.48 0.00 88 1016.2
20260507090503 2 223 6.4 14.5 0.00 0.48 0.00 89 1016.4
20260507090004 2 225 6.4 14.5 0.00 0.48 0.00 89 1016.4
20260507085503 2 225 6.4 14.5 0.00 0.48 0.00 89 1016.5
20260507085005 2 223 6.4 14.5 0.00 0.48 0.00 89 1016.5
20260507084503 2 221 6.4 14.5 0.00 0.48 0.00 88 1016.6
20260507084003 2 222 6.4 14.5 0.00 0.48 0.00 88 1016.7
20260507083503 2 227 6.4 14.5 0.00 0.48 0.00 88 1016.8
20260507083004 2 229 6.4 14.5 0.00 0.48 0.00 88 1016.9
20260507082503 2 225 6.4 20.9 0.00 0.48 0.00 88 1017.0
20260507082003 2 223 6.4 20.9 0.00 0.48 0.00 89 1017.0
20260507081503 2 222 6.4 16.1 0.00 0.48 0.00 89 1017.1
20260507081003 2 222 6.4 16.1 0.00 0.48 0.00 89 1017.2
20260507080505 2 223 6.4 12.9 0.00 0.51 0.00 88 1017.2
20260507080003 2 223 6.4 12.9 0.00 0.51 0.00 88 1017.3
20260507075503 2 223 6.4 14.5 0.00 0.51 0.00 88 1017.3
20260507075003 2 222 6.4 14.5 0.00 0.51 0.00 88 1017.4
20260507074503 2 220 6.4 14.5 0.00 0.51 0.00 88 1017.5
20260507074003 3 216 6.4 12.9 0.00 0.51 0.00 88 1017.5
20260507073503 3 218 6.4 12.9 0.00 0.51 0.00 88 1017.6
20260507073003 3 220 6.4 16.1 0.00 0.51 0.00 89 1017.8
20260507072503 3 221 6.4 16.1 0.00 0.51 0.00 89 1017.9
20260507072003 3 221 6.4 16.1 0.00 0.51 0.00 89 1018.0
20260507071504 3 218 6.4 14.5 0.00 0.53 0.00 90 1018.0
20260507071003 2 219 6.4 14.5 0.00 0.53 0.00 90 1018.1
20260507070503 2 221 4.8 12.9 0.00 0.53 0.00 90 1018.2
20260507070007 2 223 4.8 12.9 0.00 0.53 0.00 89 1018.2
20260507065503 2 222 6.4 12.9 0.00 0.53 0.00 89 1018.3
20260507065003 3 220 6.4 12.9 0.00 0.53 0.00 89 1018.3
20260507064503 3 219 6.4 12.9 0.00 0.56 0.00 89 1018.4
20260507064003 3 222 6.4 12.9 0.00 0.56 0.00 89 1018.4
20260507063504 3 224 6.4 11.3 0.00 0.56 0.00 89 1018.5
20260507063003 3 223 4.8 11.3 0.00 0.56 0.00 89 1018.5
20260507062503 3 223 4.8 12.9 0.00 0.56 0.00 90 1018.7
20260507062003 3 222 4.8 14.5 0.00 0.58 0.00 90 1018.7
20260507061503 3 223 6.4 14.5 0.00 0.58 0.00 90 1018.8
20260507061003 3 227 6.4 14.5 0.00 0.58 0.00 90 1018.8
20260507060503 3 225 6.4 14.5 0.00 0.58 0.00 90 1018.9
20260507060003 3 217 4.8 11.3 0.00 0.58 0.00 90 1018.8
20260507055503 3 217 4.8 11.3 0.00 0.61 0.00 89 1018.8
20260507055003 3 220 4.8 11.3 0.00 0.61 0.00 89 1018.9
20260507054503 3 219 4.8 12.9 0.00 0.64 0.00 89 1018.9
20260507054003 3 221 4.8 12.9 0.00 0.64 0.00 89 1018.9
20260507053503 3 218 6.4 14.5 0.00 0.66 0.00 89 1018.9
20260507053004 3 215 6.4 14.5 0.00 0.66 0.00 89 1018.9
20260507052503 3 210 6.4 16.1 0.00 0.66 0.00 89 1018.8
20260507052003 3 211 8.0 16.1 0.00 0.69 0.00 89 1018.8
20260507051503 3 217 8.0 12.9 0.00 0.69 0.00 89 1018.9
20260507051004 3 214 8.0 12.9 0.00 0.69 0.00 89 1018.9
20260507050503 3 213 6.4 12.9 0.00 0.69 0.00 89 1019.0
20260507050004 3 216 6.4 11.3 0.00 0.71 0.00 89 1019.1
20260507045503 3 218 6.4 12.9 0.00 0.71 0.71 88 1019.1
20260507045003 3 217 6.4 12.9 0.00 0.74 0.71 88 1019.2
20260507044503 4 211 6.4 12.9 0.00 0.74 0.71 88 1019.2
20260507044003 4 206 6.4 12.9 0.00 0.74 0.71 88 1019.3
20260507043503 4 205 6.4 12.9 0.00 0.76 0.71 88 1019.4
20260507043003 4 204 8.0 12.9 0.00 0.76 0.71 88 1019.4
20260507042503 4 208 6.4 14.5 0.00 0.76 0.71 88 1019.4
20260507042003 4 213 6.4 14.5 0.00 0.76 0.71 88 1019.4
20260507041503 4 213 4.8 11.3 0.00 0.79 0.71 88 1019.4
20260507041003 4 214 4.8 8.0 0.00 0.79 0.71 88 1019.5
20260507040505 4 215 4.8 8.0 0.00 0.81 0.71 88 1019.4
20260507040003 4 216 4.8 8.0 0.00 0.81 0.71 88 1019.4
20260507035503 4 221 4.8 9.7 0.00 0.81 0.71 87 1019.5
20260507035003 4 220 4.8 11.3 0.00 0.84 0.71 87 1019.5
20260507034503 5 215 4.8 11.3 0.00 0.84 0.71 87 1019.5
20260507034003 5 212 4.8 11.3 0.00 0.84 0.71 87 1019.5
20260507033503 5 214 4.8 11.3 0.00 0.84 0.71 87 1019.4
20260507033003 5 214 4.8 8.0 0.00 0.86 0.71 86 1019.5
20260507032503 5 214 3.2 9.7 0.00 0.89 0.71 86 1019.5
20260507032005 5 217 3.2 9.7 0.00 0.91 0.71 86 1019.5
20260507031503 5 216 3.2 8.0 0.00 0.94 0.71 85 1019.5
20260507031003 5 216 4.8 9.7 0.00 0.97 0.71 85 1019.5
20260507030503 5 214 6.4 9.7 0.00 0.97 0.71 86 1019.5
20260507030003 5 210 6.4 9.7 0.00 0.97 0.71 86 1019.5
20260507025503 5 211 4.8 9.7 0.00 0.99 0.71 86 1019.5
20260507025003 5 213 3.2 8.0 0.00 0.99 0.71 85 1019.5
20260507024503 5 212 3.2 8.0 0.00 0.99 0.71 84 1019.5
20260507024005 5 214 3.2 8.0 0.00 1.02 0.71 84 1019.4
20260507023503 6 218 3.2 6.4 0.00 1.02 0.71 83 1019.4
20260507023003 6 216 3.2 6.4 0.00 1.04 0.71 83 1019.4
20260507022503 6 213 3.2 6.4 0.00 1.04 0.71 83 1019.3
20260507022003 6 213 3.2 8.0 0.00 1.07 0.71 82 1019.4
20260507021503 6 216 3.2 8.0 0.00 1.07 0.71 82 1019.3
20260507021003 7 217 3.2 8.0 0.00 1.07 0.71 82 1019.2
20260507020505 7 215 3.2 8.0 0.00 1.07 0.71 81 1019.3
20260507020003 7 214 3.2 8.0 0.00 1.07 0.71 81 1019.3
20260507015503 7 218 4.8 11.3 0.00 1.09 0.71 81 1019.2
20260507015003 7 220 3.2 11.3 0.00 1.09 0.71 80 1019.2
20260507014503 7 222 3.2 12.9 0.00 1.12 0.71 80 1019.3
20260507014003 7 229 3.2 12.9 0.00 1.12 0.71 79 1019.3
20260507013503 7 240 3.2 11.3 0.00 1.12 0.71 79 1019.4
20260507013004 7 227 3.2 12.9 0.00 1.12 0.71 78 1019.3
20260507012503 8 228 3.2 12.9 0.00 1.12 0.71 78 1019.3
20260507012003 8 241 3.2 11.3 0.00 1.14 0.71 77 1019.3
20260507011505 8 245 3.2 11.3 0.00 1.14 0.71 77 1019.3
20260507011003 8 242 3.2 12.9 0.00 1.14 0.71 77 1019.3
20260507010503 8 238 3.2 12.9 0.00 1.14 0.71 76 1019.3
20260507010003 8 232 4.8 12.9 0.00 1.14 0.71 76 1019.2
20260507005503 8 237 4.8 12.9 0.00 1.17 0.71 75 1019.1
20260507005003 8 243 4.8 17.7 0.00 1.17 0.71 74 1019.1
20260507004503 8 232 6.4 17.7 0.00 1.17 0.71 74 1019.0
20260507004003 8 235 6.4 16.1 0.00 1.17 0.71 75 1019.0
20260507003503 8 243 6.4 17.7 0.00 1.19 0.71 75 1019.1
20260507003003 8 233 6.4 19.3 0.00 1.19 0.71 76 1019.1
20260507002503 8 237 6.4 19.3 0.00 1.19 0.71 76 1019.2
20260507002003 8 248 4.8 14.5 0.00 1.19 0.71 79 1019.2
20260507001503 8 258 4.8 12.9 0.00 1.19 0.71 80 1019.3
20260507001003 8 280 6.4 12.9 0.00 1.19 0.71 81 1019.2
20260507000503 8 290 6.4 12.9 0.00 1.19 0.71 81 1019.3
20260507000003 8 283 4.8 12.9 0.00 1.19 0.71 82 1019.3
20260506235503 8 271 4.8 11.3 0.00 1.19 0.71 81 1019.4
20260506235005 8 275 4.8 14.5 0.00 1.19 0.71 81 1019.4
20260506234503 8 262 6.4 14.5 0.00 1.22 0.71 81 1019.3
20260506234003 8 231 6.4 16.1 0.00 1.22 0.71 79 1019.4
20260506233503 8 239 6.4 16.1 0.00 1.22 0.71 77 1019.3
20260506233004 8 257 6.4 11.3 0.00 1.22 0.71 77 1019.4
20260506232503 8 263 4.8 12.9 0.00 1.22 0.71 77 1019.4
20260506232003 8 258 4.8 14.5 0.00 1.22 0.71 78 1019.4
20260506231503 8 244 4.8 14.5 0.00 1.22 0.71 78 1019.4
20260506231003 8 231 6.4 19.3 0.00 1.22 0.71 78 1019.4
20260506230503 8 229 8.0 19.3 0.00 1.22 0.71 76 1019.3
20260506230003 8 230 6.4 17.7 0.00 1.22 0.71 75 1019.3
20260506225503 8 228 8.0 19.3 0.00 1.22 0.71 74 1019.4
20260506225003 8 227 8.0 19.3 0.00 1.22 0.71 74 1019.3
20260506224505 8 234 6.4 17.7 0.00 1.22 0.71 73 1019.3
20260506224003 8 230 6.4 17.7 0.00 1.22 0.71 74 1019.4
20260506223503 8 220 9.7 20.9 0.00 1.22 0.71 72 1019.4
20260506223003 8 224 8.0 20.9 0.00 1.22 0.71 73 1019.3
20260506222503 8 226 8.0 22.5 0.00 1.22 0.71 75 1019.3
20260506222003 8 229 8.0 22.5 0.00 1.22 0.71 73 1019.2
20260506221504 8 236 6.4 16.1 0.00 1.22 0.71 74 1019.4
20260506221003 9 223 8.0 19.3 0.00 1.22 0.71 73 1019.4
20260506220503 10 225 6.4 19.3 0.00 1.22 0.71 71 1019.3
20260506220005 10 228 4.8 11.3 0.00 1.24 0.71 71 1019.4
20260506215503 10 213 4.8 14.5 0.00 1.24 0.71 72 1019.4
20260506215003 10 223 6.4 14.5 0.00 1.24 0.71 68 1019.5
20260506214503 10 249 4.8 12.9 0.00 1.27 0.71 71 1019.5
20260506214003 10 251 4.8 12.9 0.00 1.27 0.71 68 1019.6
20260506213503 10 224 4.8 12.9 0.00 1.27 0.71 69 1019.5
20260506213004 10 223 4.8 11.3 0.00 1.27 0.71 69 1019.7
20260506212503 10 219 4.8 12.9 0.00 1.27 0.71 70 1019.8
20260506212003 10 226 4.8 12.9 0.00 1.27 0.71 73 1019.7
20260506211503 10 213 4.8 16.1 0.00 1.27 0.71 72 1019.9
20260506211005 10 193 6.4 16.1 0.00 1.27 0.71 72 1019.8
20260506210503 10 220 4.8 12.9 0.00 1.27 0.71 74 1020.0
20260506210004 10 227 6.4 16.1 0.00 1.30 0.71 75 1020.0
20260506205503 10 210 6.4 16.1 0.00 1.30 0.71 74 1020.0
20260506205003 10 214 4.8 11.3 0.00 1.30 0.71 75 1020.1
20260506204503 9 212 4.8 11.3 0.00 1.30 0.71 76 1020.1
20260506204003 9 223 3.2 11.3 0.00 1.30 0.71 78 1020.2
20260506203503 9 219 4.8 11.3 0.00 1.30 0.71 78 1020.1
20260506203003 8 203 3.2 8.0 0.00 1.30 0.71 78 1020.2
20260506202503 8 202 4.8 11.3 0.00 1.30 0.71 81 1020.1
20260506202003 8 217 4.8 11.3 0.00 1.30 0.71 78 1020.2
20260506201503 8 224 3.2 11.3 0.00 1.30 0.71 82 1020.2
20260506201005 7 218 3.2 8.0 0.00 1.30 0.71 83 1020.2
20260506200503 7 260 3.2 6.4 0.00 1.30 0.71 84 1020.2
20260506200003 7 297 3.2 6.4 0.00 1.30 0.71 85 1020.2
20260506195503 7 289 3.2 9.7 0.00 1.30 0.71 83 1020.3
20260506195003 7 288 4.8 9.7 0.00 1.30 0.71 85 1020.4
20260506194503 7 261 4.8 11.3 0.00 1.30 0.71 86 1020.4
20260506194003 7 238 4.8 11.3 0.00 1.30 0.71 86 1020.4
20260506193503 7 227 3.2 8.0 0.00 1.30 0.71 89 1020.5
20260506193004 7 233 3.2 8.0 0.00 1.30 0.71 85 1020.5
20260506192504 7 288 3.2 11.3 0.00 1.30 0.71 87 1020.5
20260506192004 7 291 4.8 11.3 0.00 1.30 0.71 85 1020.5
20260506191503 7 289 3.2 9.7 0.00 1.30 0.71 86 1020.4
20260506191003 6 310 1.6 4.8 0.00 1.30 0.71 83 1020.5
20260506190503 6 304 1.6 6.4 0.00 1.30 0.71 84 1020.5
20260506190004 6 301 3.2 6.4 0.00 1.30 0.71 86 1020.6
20260506185503 6 303 1.6 6.4 0.00 1.30 0.71 85 1020.6
20260506185003 6 321 0.0 3.2 0.00 1.30 0.71 86 1020.7
20260506184503 6 322 0.0 3.2 0.00 1.30 0.71 85 1020.7
20260506184003 6 332 0.0 1.6 0.00 1.32 0.71 87 1020.8
20260506183503 6 0 0.0 0.0 0.03 1.32 0.71 87 1020.8
20260506183005 6 0 0.0 0.0 0.03 1.32 0.71 88 1020.8
20260506182503 6 0 0.0 0.0 0.03 1.32 0.71 88 1020.8
20260506182003 6 0 0.0 0.0 0.03 1.32 0.71 88 1020.8
20260506181503 6 338 0.0 1.6 0.03 1.32 0.71 88 1020.8
20260506181003 6 338 0.0 1.6 0.03 1.32 0.71 88 1021.0
20260506180503 6 338 0.0 1.6 0.03 1.32 0.71 88 1021.0
20260506180004 6 338 0.0 4.8 0.03 1.35 0.71 88 1021.0
20260506175503 6 338 0.0 4.8 0.03 1.35 0.71 86 1021.0
20260506175005 6 294 0.0 1.6 0.03 1.35 0.71 89 1021.0
20260506174503 6 294 0.0 3.2 0.03 1.35 0.71 87 1021.1
20260506174003 6 308 1.6 4.8 0.03 1.35 0.71 88 1021.0
20260506173503 6 318 1.6 4.8 0.00 1.32 0.69 88 1021.1
20260506173003 6 354 0.0 3.2 0.00 1.32 0.69 90 1021.1
20260506172504 6 360 0.0 3.2 0.00 1.32 0.69 88 1021.0
20260506172003 6 0 0.0 0.0 0.00 1.32 0.69 88 1021.0
20260506171504 6 358 0.0 3.2 0.00 1.32 0.69 89 1021.1
20260506171004 6 358 0.0 3.2 0.00 1.32 0.69 88 1021.1
20260506170503 6 355 0.0 3.2 0.00 1.32 0.69 90 1021.0
20260506170004 6 348 0.0 1.6 0.00 1.32 0.69 92 1021.0
20260506165503 6 348 0.0 1.6 0.00 1.32 0.69 92 1021.0
20260506165003 6 342 0.0 3.2 0.03 1.32 0.69 91 1021.0
20260506164503 5 350 0.0 4.8 0.03 1.32 0.69 90 1021.0
20260506164003 5 359 0.0 4.8 0.03 1.32 0.69 90 1021.0
20260506163503 5 5 0.0 3.2 0.03 1.32 0.69 91 1020.9
20260506163003 5 5 0.0 3.2 0.03 1.32 0.69 91 1020.8
20260506162503 5 5 0.0 3.2 0.03 1.32 0.69 92 1020.7
20260506162003 5 72 0.0 4.8 0.03 1.32 0.69 93 1020.7
20260506161503 5 98 1.6 4.8 0.03 1.32 0.69 91 1020.6
20260506161003 5 126 0.0 3.2 0.03 1.32 0.69 92 1020.5
20260506160503 6 0 0.0 0.0 0.03 1.32 0.69 94 1020.5
20260506160003 5 0 0.0 0.0 0.03 1.32 0.69 94 1020.4
20260506155503 5 126 0.0 3.2 0.03 1.32 0.69 94 1020.2
20260506155003 5 126 0.0 3.2 0.00 1.30 0.66 95 1020.1
20260506154503 5 0 0.0 0.0 0.00 1.30 0.66 94 1020.0
20260506154003 5 0 0.0 0.0 0.00 1.30 0.66 94 1020.1
20260506153503 5 212 0.0 6.4 0.00 1.30 0.66 95 1020.0
20260506153003 5 202 3.2 9.7 0.00 1.30 0.66 95 1020.0
20260506152503 4 199 4.8 11.3 0.00 1.30 0.66 95 1019.9
20260506152003 4 192 4.8 11.3 0.00 1.30 0.66 95 1020.0
20260506151503 4 192 4.8 9.7 0.00 1.30 0.66 95 1020.0
20260506151003 4 198 4.8 9.7 0.00 1.30 0.66 95 1020.0
20260506150503 4 202 4.8 9.7 0.00 1.30 0.66 96 1020.0
20260506150003 3 206 4.8 9.7 0.00 1.30 0.66 95 1020.0
20260506145503 3 208 4.8 8.0 0.03 1.30 0.66 96 1020.0